User: anonymous   Login
Location: Unspecified
(0.0000°N, 0.0000°E)
Time: 09:18:24
(UTC+00:00)
Language:

COSMOS 2483 - Orbit

View from above orbital plane
View from above orbital plane
View from above satellite
View from above satellite

Ground track
Ground track

The orbit data is extracted from the following two-line orbital elements,

1 39058U 13001B   17268.69047807 +.00000042 +00000-0 +22797-3 0  9991
2 39058 082.5017 040.6879 0016816 135.5960 224.6463 12.43946076213099
Epoch (UTC): 25 September 2017 16:34:17
Eccentricity: 0.0016816
inclination: 82.5017°
perigee height: 1476 km
apogee height: 1503 km
right ascension of ascending node: 40.6879°
argument of perigee: 135.5960°
revolutions per day: 12.43946076
mean anomaly at epoch: 224.6463°
orbit number at epoch: 21309

The dashed part of the orbit path shows where the satellite is in the earth's shadow,  

DLR